START_TIME,STEP,MOV.,H8,t_acc.,H43,t_acc.,M25,t_acc.,H9,t_acc.
1979-07-19 18:00:29.330 ,0,1,0.,12.0,0.,12.0,0.,12.0,0.,12.0
1979-07-19 18:00:41.330 ,0,1,0.,12.0,0.,12.0,0.,12.0,0.,12.0
1979-07-19 18:00:53.330 ,4,1,0.,12.0,0.,12.0,0.,12.0,0.,12.0
1979-07-19 18:01:05.330 ,4,1,0.,12.0,0.,12.0,0.,12.0,0.,12.0
1979-07-19 18:01:17.330 ,7,1,0.,12.0,0.,12.0,0.,12.0,0.,12.0
1979-07-19 18:01:29.330 ,7,1,0.,12.0,0.,12.0,0.,12.0,0.,12.0
1979-07-19 18:01:41.330 ,3,1,0.,12.0,0.,12.0,0.,12.0,0.,12.0
1979-07-19 18:01:53.330 ,3,1,0.,12.0,0.,12.0,0.,12.0,0.,12.0
1979-07-19 18:02:05.330 ,0,1,0.,12.0,0.,12.0,0.,12.0,0.,12.0
1979-07-19 18:02:17.330 ,0,1,0.,12.0,0.,12.0,0.,12.0,0.,12.0
1979-07-19 18:02:29.330 ,4,1,0.,12.0,0.,12.0,0.,12.0,0.,12.0
1979-07-19 18:02:41.330 ,4,1,0.,12.0,0.,12.0,0.,12.0,0.,12.0
1979-07-19 18:02:53.330 ,7,1,0.,12.0,0.,12.0,0.,12.0,0.,12.0
1979-07-19 18:03:05.330 ,7,1,0.,12.0,0.,12.0,0.,12.0,0.,12.0
1979-07-19 18:03:17.330 ,3,1,0.,12.0,0.,12.0,0.,12.0,0.,12.0
1979-07-19 18:03:29.330 ,3,1,0.,12.0,0.,12.0,0.,12.0,0.,12.0
1979-07-19 18:03:41.330 ,0,1,0.,12.0,0.,12.0,0.,12.0,0.,12.0
1979-07-19 18:03:53.330 ,0,1,0.,12.0,0.,12.0,0.,12.0,0.,12.0
1979-07-19 18:04:05.330 ,4,1,0.,12.0,0.,12.0,0.,12.0,0.,12.0
1979-07-19 18:04:17.330 ,4,1,0.,12.0,0.,12.0,0.,12.0,0.,12.0
1979-07-19 18:04:29.330 ,7,1,0.,12.0,0.,12.0,0.,12.0,0.,12.0
1979-07-19 18:04:41.330 ,7,1,0.,12.0,0.,12.0,0.,12.0,0.,12.0
1979-07-19 18:04:53.330 ,3,1,0.,12.0,0.,12.0,0.,12.0,0.,12.0
1979-07-19 18:05:05.330 ,3,1,0.,12.0,0.,12.0,0.,12.0,0.,12.0
1979-07-19 18:05:17.330 ,0,1,0.,12.0,0.,12.0,0.,12.0,0.,12.0
1979-07-19 18:05:29.330 ,0,1,0.,12.0,0.,12.0,0.,12.0,0.,12.0
1979-07-19 18:05:41.330 ,0,0,0.,12.0,0.,12.0,0.,12.0,0.,12.0
1979-07-19 18:05:53.330 ,0,0,0.,12.0,0.,12.0,0.,12.0,0.,12.0
1979-07-19 18:06:05.330 ,0,0,0.,12.0,0.,12.0,0.,12.0,0.,12.0
1979-07-19 18:06:17.330 ,0,0,0.,12.0,0.,12.0,0.,12.0,0.,12.0
1979-07-19 18:06:29.330 ,5,0,0.,12.0,0.,12.0,0.,12.0,0.,12.0
1979-07-19 18:06:41.330 ,5,0,0.,12.0,0.,12.0,0.,12.0,0.,12.0
1979-07-19 18:06:53.330 ,5,0,0.,12.0,0.,12.0,0.,12.0,0.,12.0
1979-07-19 18:07:05.330 ,5,0,0.,12.0,0.,12.0,0.,12.0,0.,12.0
1979-07-19 18:07:17.330 ,0,0,0.,12.0,0.,12.0,0.,12.0,0.,12.0
1979-07-19 18:07:29.330 ,0,0,,0,,0,,0,,0
1979-07-19 18:07:41.330 ,0,0,,0,,0,,0,,0
1979-07-19 18:07:53.330 ,0,0,,0,,0,,0,,0
1979-07-19 18:09:25.130 ,0,0,,0,,0,,0,,0
1979-07-19 18:09:37.130 ,0,0,0.,12.0,0.,12.0,0.,12.0,0.,12.0
1979-07-19 18:09:41.330 ,1,0,0.,12.0,0.,12.0,0.,12.0,0.,12.0
1979-07-19 18:09:53.330 ,1,0,0.,12.0,0.,12.0,0.,12.0,0.,12.0
1979-07-19 18:10:05.330 ,1,0,0.,12.0,0.,12.0,0.,12.0,0.,12.0
1979-07-19 18:10:17.330 ,1,0,0.,12.0,0.,12.0,0.,12.0,0.,12.0
1979-07-19 18:10:29.330 ,0,0,0.,12.0,0.,12.0,0.,12.0,0.,12.0
1979-07-19 18:10:41.330 ,0,0,0.,12.0,0.,12.0,0.,12.0,0.,12.0
1979-07-19 18:10:53.330 ,0,0,0.,12.0,0.,12.0,0.,12.0,0.,12.0
1979-07-19 18:11:05.330 ,0,0,0.,12.0,0.,12.0,0.,12.0,0.,12.0
1979-07-19 18:11:17.330 ,0,0,0.,12.0,0.,12.0,0.,12.0,0.,12.0
1979-07-19 18:11:29.330 ,0,0,0.,12.0,0.,12.0,0.,12.0,0.,12.0
1979-07-19 18:11:41.330 ,0,0,0.,12.0,0.,12.0,0.,12.0,0.,12.0
1979-07-19 18:11:53.330 ,0,0,0.,12.0,0.,12.0,0.,12.0,0.,12.0
1979-07-19 18:12:05.330 ,1,0,0.,12.0,0.,12.0,0.,12.0,0.,12.0
1979-07-19 18:12:17.330 ,1,0,0.,12.0,0.,12.0,0.,12.0,0.,12.0
1979-07-19 18:12:29.330 ,1,0,0.,12.0,0.,12.0,0.,12.0,0.,12.0
1979-07-19 18:12:41.330 ,1,0,0.,12.0,0.,12.0,0.,12.0,0.,12.0
1979-07-19 18:12:53.330 ,2,0,0.,12.0,0.,12.0,0.,12.0,0.,12.0
1979-07-19 18:13:05.330 ,2,0,0.,12.0,0.,12.0,0.,12.0,0.,12.0
1979-07-19 18:13:17.330 ,2,0,0.,12.0,0.,12.0,0.,12.0,0.,12.0
1979-07-19 18:13:29.330 ,2,0,0.,12.0,0.,12.0,0.,12.0,0.,12.0
1979-07-19 18:13:41.330 ,3,0,0.,12.0,0.,12.0,0.,12.0,0.,12.0
1979-07-19 18:13:53.330 ,3,0,0.,12.0,0.,12.0,0.,12.0,0.,12.0
1979-07-19 18:14:05.330 ,3,0,0.,12.0,0.,12.0,0.,12.0,0.,12.0
1979-07-19 18:14:17.330 ,3,0,0.,12.0,0.,12.0,0.,12.0,0.,12.0
1979-07-19 18:14:29.330 ,4,0,0.,12.0,0.,12.0,0.,12.0,0.,12.0
1979-07-19 18:14:41.330 ,4,0,0.,12.0,0.,12.0,0.,12.0,0.,12.0
1979-07-19 18:14:53.330 ,4,0,0.,12.0,0.,12.0,0.,12.0,0.,12.0
1979-07-19 18:15:05.330 ,4,0,0.,12.0,0.,12.0,0.,12.0,0.,12.0
1979-07-19 18:15:17.330 ,5,0,0.,12.0,0.,12.0,0.,12.0,0.,12.0
1979-07-19 18:15:29.330 ,5,0,0.,12.0,0.,12.0,0.,12.0,0.,12.0
1979-07-19 18:15:41.330 ,5,0,0.,12.0,0.,12.0,0.,12.0,0.,12.0
1979-07-19 18:15:53.330 ,5,0,0.,12.0,0.,12.0,0.,12.0,0.,12.0
1979-07-19 18:16:05.330 ,6,0,0.,12.0,0.,12.0,0.,12.0,0.,12.0
1979-07-19 18:16:17.330 ,6,0,0.,12.0,0.,12.0,0.,12.0,0.,12.0
1979-07-19 18:16:29.330 ,6,0,0.,12.0,0.,12.0,0.,12.0,0.,12.0
1979-07-19 18:16:41.330 ,6,0,0.,12.0,0.,12.0,0.,12.0,0.,12.0
1979-07-19 18:16:53.330 ,7,0,0.,12.0,0.,12.0,0.,12.0,0.,12.0
1979-07-19 18:17:05.330 ,7,0,0.,12.0,0.,12.0,0.,12.0,0.,12.0
1979-07-19 18:17:17.330 ,7,0,0.,12.0,0.,12.0,0.,12.0,0.,12.0
1979-07-19 18:17:29.330 ,7,0,0.,12.0,0.,12.0,0.,12.0,0.,12.0
1979-07-19 18:17:41.330 ,7,0,0.,12.0,0.,12.0,0.,12.0,0.,12.0
1979-07-19 18:17:53.330 ,7,0,0.,12.0,0.,12.0,0.,12.0,0.,12.0
1979-07-19 18:18:05.330 ,7,0,0.,12.0,0.,12.0,0.,12.0,0.,12.0
1979-07-19 18:18:17.330 ,7,0,0.,12.0,0.,12.0,0.,12.0,0.,12.0
1979-07-19 18:18:29.330 ,6,0,0.,12.0,0.,12.0,0.,12.0,0.,12.0
1979-07-19 18:18:41.330 ,6,0,0.,12.0,0.,12.0,0.,12.0,0.,12.0
1979-07-19 18:18:53.330 ,6,0,0.,12.0,0.,12.0,0.,12.0,0.,12.0
1979-07-19 18:19:05.330 ,6,0,0.,12.0,0.,12.0,0.,12.0,0.,12.0
1979-07-19 18:19:17.330 ,5,0,0.,12.0,0.,12.0,0.,12.0,0.,12.0
1979-07-19 18:19:29.330 ,5,0,0.,12.0,0.,12.0,0.,12.0,0.,12.0
1979-07-19 18:19:41.330 ,5,0,0.,12.0,0.,12.0,0.,12.0,0.,12.0
1979-07-19 18:19:53.330 ,5,0,0.,12.0,0.,12.0,0.,12.0,0.,12.0
1979-07-19 18:20:05.330 ,4,0,0.,12.0,0.,12.0,0.,12.0,0.,12.0
1979-07-19 18:20:17.330 ,4,0,0.,12.0,0.,12.0,0.,12.0,0.,12.0
1979-07-19 18:20:29.330 ,4,0,0.,12.0,0.,12.0,0.,12.0,0.,12.0
1979-07-19 18:20:41.330 ,4,0,0.,12.0,0.,12.0,0.,12.0,0.,12.0
1979-07-19 18:20:53.330 ,3,0,0.,12.0,0.,12.0,0.,12.0,0.,12.0
1979-07-19 18:21:05.330 ,3,0,0.,12.0,0.,12.0,0.,12.0,0.,12.0
1979-07-19 18:21:17.330 ,3,0,0.,12.0,0.,12.0,0.,12.0,0.,12.0
1979-07-19 18:21:29.330 ,3,0,0.,12.0,0.,12.0,0.,12.0,0.,12.0
1979-07-19 18:21:41.330 ,2,0,0.,12.0,0.,12.0,0.,12.0,0.,12.0
1979-07-19 18:21:53.330 ,2,0,0.,12.0,0.,12.0,0.,12.0,0.,12.0
1979-07-19 18:22:05.330 ,2,0,0.,12.0,0.,12.0,0.,12.0,0.,12.0
1979-07-19 18:22:17.330 ,2,0,0.,12.0,0.,12.0,0.,12.0,0.,12.0
1979-07-19 18:22:29.330 ,1,0,0.,12.0,0.,12.0,0.,12.0,0.,12.0
1979-07-19 18:22:41.330 ,1,0,0.,12.0,0.,12.0,0.,12.0,0.,12.0
1979-07-19 18:22:53.330 ,1,0,0.,12.0,0.,12.0,0.,12.0,0.,12.0
1979-07-19 18:23:05.330 ,1,0,0.,12.0,0.,12.0,0.,12.0,0.,12.0
1979-07-19 18:23:17.330 ,0,0,0.,12.0,0.,12.0,0.,12.0,0.,12.0
1979-07-19 18:23:29.330 ,0,0,0.,12.0,0.,12.0,0.,12.0,0.,12.0
1979-07-19 18:23:41.330 ,0,0,0.,12.0,0.,12.0,0.,12.0,0.,12.0
1979-07-19 18:23:53.330 ,0,0,0.,12.0,0.,12.0,0.,12.0,0.,12.0
1979-07-19 18:24:05.330 ,0,0,0.,12.0,0.,12.0,0.,12.0,0.,12.0
1979-07-19 18:24:17.330 ,0,0,0.,12.0,0.,12.0,0.,12.0,0.,12.0
1979-07-19 18:24:29.330 ,0,0,0.,12.0,0.,12.0,0.,12.0,0.,12.0
1979-07-19 18:24:41.330 ,0,0,0.,12.0,0.,12.0,0.,12.0,0.,12.0
1979-07-19 18:24:53.330 ,1,0,0.,12.0,0.,12.0,0.,12.0,0.,12.0
1979-07-19 18:25:05.330 ,1,0,0.,12.0,0.,12.0,0.,12.0,0.,12.0
1979-07-19 18:25:17.330 ,1,0,0.,12.0,0.,12.0,0.,12.0,0.,12.0
1979-07-19 18:25:29.330 ,1,0,0.,12.0,0.,12.0,0.,12.0,0.,12.0
1979-07-19 18:25:41.330 ,2,0,1.,12.0,0.,12.0,0.,12.0,0.,12.0
1979-07-19 18:25:53.330 ,2,0,0.,12.0,0.,12.0,0.,12.0,0.,12.0
1979-07-19 18:26:05.330 ,2,0,0.,12.0,0.,12.0,0.,12.0,0.,12.0
1979-07-19 18:26:17.330 ,2,0,0.,12.0,0.,12.0,0.,12.0,0.,12.0
1979-07-19 18:26:29.330 ,3,0,0.,12.0,0.,12.0,0.,12.0,0.,12.0
1979-07-19 18:26:41.330 ,3,0,0.,12.0,0.,12.0,0.,12.0,0.,12.0
1979-07-19 18:26:53.330 ,3,0,0.,12.0,0.,12.0,0.,12.0,0.,12.0
1979-07-19 18:27:05.330 ,3,0,0.,12.0,0.,12.0,0.,12.0,0.,12.0
1979-07-19 18:27:17.330 ,4,0,0.,12.0,0.,12.0,0.,12.0,0.,12.0
1979-07-19 18:27:29.330 ,4,0,0.,12.0,0.,12.0,0.,12.0,0.,12.0
1979-07-19 18:27:41.330 ,4,0,0.,12.0,0.,12.0,0.,12.0,0.,12.0
1979-07-19 18:27:53.330 ,4,0,0.,12.0,0.,12.0,0.,12.0,0.,12.0
1979-07-19 18:28:05.330 ,5,0,0.,12.0,0.,12.0,0.,12.0,0.,12.0
1979-07-19 18:28:17.330 ,5,0,0.,12.0,0.,12.0,0.,12.0,0.,12.0
1979-07-19 18:28:29.330 ,5,0,0.,12.0,0.,12.0,0.,12.0,0.,12.0
1979-07-19 18:28:41.330 ,5,0,0.,12.0,0.,12.0,0.,12.0,0.,12.0
1979-07-19 18:28:53.330 ,6,0,0.,12.0,0.,12.0,0.,12.0,0.,12.0
1979-07-19 18:29:05.330 ,6,0,0.,12.0,0.,12.0,0.,12.0,0.,12.0
1979-07-19 18:29:17.330 ,6,0,0.,12.0,0.,12.0,0.,12.0,0.,12.0
1979-07-19 18:29:29.330 ,6,0,0.,12.0,0.,12.0,0.,12.0,0.,12.0
